Weather in Marivka

Ukraine / Dnipropetrovsk Region     48°56′38″N   35°11′29″E
temp.,
°C
wind,
m/s
gust,
m/s
humid.,
%
clouds,
%
prec.,
mm/h
press.,
hPa
HPBL,
m
15 june, tue
tue1500:00+18ene33800 0.0 101338
03:00+17ne33842 0.0 101246
06:00+17ne36880 0.0 1012138
09:00+23ne45701 0.0 1012474
12:00+26ne44520 1.0 10111669
15:00+27ene335088 1.0 10102224
18:00+22ne4778100 0.3 1009151
21:00+20ene338196 1.0 100925
16 june, wed
wed1600:00+19se1285100 0.6 100912
03:00+18ese228496 0.6 100911
06:00+18ne2286100 0.4 100945
09:00+22se3376100 0.8 1011431
12:00+25se236152 2.5 10111057
15:00+26ese23574 2.8 10111600
18:00+27ene235717 0.0 10111824
21:00+21ne338036 0.2 101226
17 june, thu
thu1700:00+19ne41087100 0.0 1013223
03:00+19ne51286100 0.0 1013277
06:00+19ne51388100 0.0 1013411
09:00+22ene71480100 0.0 1014816
12:00+25e7868100 0.7 10151349
15:00+25e6973100 2.1 10151009
18:00+21se478699 4.4 1017401
21:00+19ese4897100 9.6 1019325
18 june, fri
fri1800:00+17ene389786 1.1 1019233
03:00+17e389764 1.1 1020231
06:00+17ene599492 0.1 1020385
09:00+18ene599099 0.2 1021405
12:00+18e489289 0.7 1022476
15:00+23e797299 0.9 10211227
18:00+23e597892 1.4 10211063
21:00+19ene4989100 1.7 1022202
19 june, sat
sat1900:00+17ene4109194 0.0 1022194
03:00+16ene410925 0.0 1023209
06:00+16e5128626 0.0 1023292
09:00+21e710685 0.0 1023523
12:00+24e810590 0.0 1022955
15:00+25e79590 0.0 10221191
18:00+24e69674 0.0 10211049
21:00+19ene411851 0.0 1022247